User: anonymous   Login
Location: Columbia
(38.9520°N, 92.3340°W)
Time: 10:13:59
(UTC-06:00)
Language:

SJ-11-01 - Orbit

View from above orbital plane
View from above orbital plane
View from above satellite
View from above satellite

Ground track
Ground track

The orbit data is extracted from the following two-line orbital elements,

1 36088U 09061A   18055.12292892  .00000058  00000-0  21645-4 0  9990
2 36088  98.1020 102.7649 0010950 192.1166 167.9782 14.60006546441402
Epoch (UTC): 24 February 2018 02:57:01
Eccentricity: 0.0010950
inclination: 98.1020°
perigee height: 685 km
apogee height: 701 km
right ascension of ascending node: 102.7649°
argument of perigee: 192.1166°
revolutions per day: 14.60006546
mean anomaly at epoch: 167.9782°
orbit number at epoch: 44140

The dashed part of the orbit path shows where the satellite is in the earth's shadow,  

DLR